Flag Weather past 2 weeks in St. George, Utah, U.S.A.

Now
48 °F

Clear.


Feels Like: 44 °F
Forecast: 33 / 54 °F
Wind: 9 mph from Northeast

Location: Saint George

Current Time: Nov 23, 2014 at 7:56:34 PM

Latest Report: Nov 23, 2014 at 7:15 PM


Visibility: 10 mi

Pressure: 30.24 "Hg

Humidity: 21%

Dew point: 10 °F

Location of St. GeorgeLocation

Historic Weather in St. George — Graph

°F

St. George temperature yesterday

Maximum temperature yesterday: 63 °F (at 3:55 PM)
Minimum temperature yesterday: 36 °F (at 6:15 AM)
Average temperature yesterday: 47 °F

Past Weeks' High & Low Weather Summary

 TemperatureHumidityPressure
High75 °F (Nov 10, 3:55 PM)76% (Nov 15, 7:55 AM)30.43 "Hg (Nov 15, 7:55 AM)
Low27 °F (Nov 17, 5:15 AM)15% (Nov 20, 3:55 PM)29.75 "Hg (Nov 10, 2:35 PM)
Average49 °F35%30.07 "Hg
* Reported Nov 8 6:15 PM — Nov 23 6:35 PM, St. George, Weather by CustomWeather, © 2014

Note: Actual official high and low records may vary slightly from our data, if they occured in-between our weather recording intervals... More about our weather records

Advertising

St. George weather history for previous 24 hours

 ConditionsComfort  
Time TempWeatherWind HumidityBarometerVisibility
6:35 PM
Nov 23
48 °FClear.7 mph21%30.23 "Hg10 mi
6:15 PM48 °FClear.7 mph23%30.23 "Hg10 mi
5:55 PM50 °FClear.6 mph20%30.23 "Hg10 mi
5:35 PM52 °FClear.8 mph19%30.23 "Hg10 mi
4:55 PM54 °FSunny.13 mph18%30.23 "Hg10 mi
4:35 PM55 °FSunny.8 mph18%30.23 "Hg10 mi
4:15 PM55 °FSunny.8 mph18%30.22 "Hg10 mi
3:55 PM57 °FSunny.10 mph17%30.22 "Hg10 mi
3:35 PM57 °FSunny.9 mph17%30.22 "Hg10 mi
3:15 PM57 °FSunny.15 mph17%30.22 "Hg10 mi
2:55 PM57 °FSunny.14 mph17%30.22 "Hg10 mi
2:35 PM57 °FSunny.No wind17%30.23 "Hg10 mi
2:15 PM55 °FSunny.5 mph18%30.23 "Hg10 mi
1:55 PM55 °FSunny.5 mph18%30.23 "Hg10 mi
1:35 PM55 °FSunny.8 mph19%30.24 "Hg10 mi
1:15 PM55 °FSunny.6 mph18%30.24 "Hg10 mi
12:55 PM54 °FSunny.3 mph21%30.24 "Hg10 mi
12:35 PM54 °FSunny.8 mph22%30.25 "Hg10 mi
12:15 PM54 °FSunny.No wind22%30.26 "Hg10 mi
11:55 AM54 °FSunny.6 mph22%30.27 "Hg10 mi
11:35 AM54 °FSunny.7 mph22%30.27 "Hg10 mi
11:15 AM54 °FSunny.8 mph22%30.28 "Hg10 mi
10:55 AM54 °FSunny.7 mph24%30.28 "Hg10 mi
10:35 AM52 °FSunny.6 mph26%30.27 "Hg10 mi
10:15 AM50 °FSunny.7 mph28%30.28 "Hg10 mi
9:55 AM48 °FSunny.8 mph29%30.28 "Hg10 mi
9:35 AM48 °FSunny.No wind32%30.27 "Hg10 mi
9:15 AM46 °FSunny.No wind34%30.26 "Hg10 mi
8:55 AM45 °FSunny.5 mph34%30.25 "Hg10 mi
8:35 AM45 °FSunny.No wind31%30.23 "Hg10 mi
8:15 AM43 °FSunny.7 mph36%30.22 "Hg10 mi
7:55 AM45 °FSunny.No wind34%30.20 "Hg10 mi
7:35 AM45 °FSunny.5 mph31%30.19 "Hg10 mi
7:15 AM45 °FClear.6 mph31%30.18 "Hg10 mi
6:55 AM45 °FClear.5 mph31%30.17 "Hg10 mi
6:35 AM46 °FClear.10 mph29%30.16 "Hg10 mi
6:15 AM46 °FClear.12 mph32%30.16 "Hg10 mi
5:55 AM46 °FClear.16 mph32%30.13 "Hg10 mi
5:35 AM48 °FClear.12 mph27%30.12 "Hg10 mi
4:55 AM48 °FClear.18 mph27%30.09 "Hg10 mi
4:35 AM48 °FClear.20 mph27%30.09 "Hg10 mi
3:55 AM50 °FClear.17 mph28%30.06 "Hg10 mi
3:35 AM52 °FClear.13 mph28%30.06 "Hg10 mi
3:15 AM52 °FClear.13 mph32%30.04 "Hg10 mi
2:55 AM52 °FClear.16 mph35%30.03 "Hg10 mi
2:35 AM54 °FClear.13 mph33%30.00 "Hg10 mi
2:15 AM54 °FClear.12 mph35%30.00 "Hg10 mi
1:55 AM54 °FClear.14 mph35%29.99 "Hg10 mi
1:35 AM52 °FPassing clouds.10 mph41%29.97 "Hg10 mi
1:15 AM50 °FPartly cloudy.9 mph43%29.97 "Hg10 mi
12:55 AM43 °FPassing clouds.5 mph42%29.97 "Hg10 mi
12:35 AM45 °FPassing clouds.8 mph39%29.96 "Hg10 mi
12:15 AM45 °FPassing clouds.No wind39%29.96 "Hg10 mi
11:55 PM
Nov 22
46 °FPassing clouds.No wind37%29.95 "Hg10 mi
11:35 PM45 °FPassing clouds.3 mph39%29.95 "Hg10 mi
11:15 PM45 °FClear.No wind39%29.92 "Hg10 mi
10:55 PM45 °FClear.5 mph39%29.92 "Hg10 mi
10:35 PM45 °FClear.No wind39%29.91 "Hg10 mi
10:15 PM46 °FClear.3 mph37%29.90 "Hg10 mi
9:55 PM46 °FClear.No wind37%29.91 "Hg10 mi
9:35 PM48 °FClear.No wind34%29.90 "Hg10 mi
9:15 PM48 °FClear.No wind34%29.89 "Hg10 mi
8:55 PM48 °FClear.5 mph34%29.89 "Hg10 mi
8:35 PM50 °FClear.No wind32%29.89 "Hg10 mi
7:55 PM52 °FClear.No wind30%29.89 "Hg10 mi
7:35 PM52 °FClear.No wind30%29.89 "Hg10 mi
7:15 PM52 °FClear.No wind30%29.89 "Hg10 mi
Weather by CustomWeather, © 2014

See weather overviewHow to use our weather pages